Regional Weather Roundup
Issued by NWS Newport/Morehead, NC

Home | Current Version | Previous Version | Text Only | Print | Product List | Glossary On
Versions: 1 2 3 4 5 6 7 8 9 10 11 12 13 14 15 16 17 18 19 20 21 22 23 24 25 26 27 28 29 30 31 32 33 34 35 36 37 38 39 40 41 42 43 44 45 46 47 48 49 50
000
ASUS42 KMHX 210122
RWRMHX
WEATHER ROUNDUP FOR EASTERN NORTH CAROLINA
NATIONAL WEATHER SERVICE NEWPORT/MOREHEAD CITY NC
900 PM EDT SAT SEP 20 2014

NOTE: "FAIR" INDICATES FEW OR NO CLOUDS BELOW 12,000 FEET
WITH NO SIGNIFICANT WEATHER AND/OR OBSTRUCTIONS TO VISIBILITY

NCZ015>017-031-032-045>047-102-103-210200-
NORTH COAST

CITY           SKY/WX    TMP DP  RH WIND       PRES   REMARKS
EDENTON        CLOUDY    70  68  94 NE6       30.01F
ELIZABETH CITY CLOUDY    71  68  90 N7        30.02S
KITTY HAWK     CLOUDY    73  72  94 NE8       29.99F FOG
MANTEO         CLOUDY    73  71  93 NE8       30.00F

$$

NCZ045>047-081-094-103-104-210200-
CENTRAL COAST

CITY           SKY/WX    TMP DP  RH WIND       PRES   REMARKS
FRISCO         LGT RAIN  71  71 100 E9        29.97S
SWANQUARTER      N/A     72 N/A N/A N8        29.94F

$$

NCZ095-097-098-100-101-210200-
SOUTHERN COAST

CITY           SKY/WX    TMP DP  RH WIND       PRES   REMARKS
BEAUFORT       LGT RAIN  72  70  93 NE10      29.95S
CEDAR ISLAND     N/A     73 N/A N/A VRB12G17  30.00S
JACKSONVILLE   LGT RAIN  71  69  93 N13       29.95F
NEWPORT        NOT AVBL
PINEY ISLAND   RAIN      73  70  90 N14       29.96S FOG
WILMINGTON     LGT RAIN  71  69  93 N13       29.94S


$$

NCZ011>013-027>030-043-044-078>080-089-090>093-098-210200-
COASTAL PLAIN

CITY           SKY/WX    TMP DP  RH WIND       PRES   REMARKS
AHOSKIE        CLOUDY    68  65  88 N3        30.04S
CLINTON        CLOUDY    73  67  83 NE8G16    29.98F
ELIZABETHTOWN  CLOUDY    72  65  80 CALM      29.97F
GOLDSBORO      CLOUDY    72  71  96 NE2       29.98S
GREENVILLE     CLOUDY    72  68  88 NE8       30.03S
HAVELOCK       LGT RAIN  72  69  90 NE13      29.98S
KENANSVILLE    CLOUDY    71  66  84 N6        29.99F
KINSTON        DRIZZLE   72  68  88 NE8       30.00F
NEW BERN       LGT RAIN  72  69  90 NE8       29.99S
RICHLANDS      CLOUDY    70  64  83 N12       29.96F
ROANOKE RAPIDS NOT AVBL
ROCKY MOUNT    CLOUDY    70  65  84 NE8       30.02S
WASHINGTON     CLOUDY    69  67  92 NE6       30.01S
WHITEVILLE     CLOUDY    73  65  78 NE6       29.95S

$$

AMZ130-135-150-152-154-156-158-170-250-252-270-ANZ085-086-088-633-658-670-210200-
MARINE OBSERVATIONS

STATION/POSITION TIME  TEMP    WIND        PRES    WAVE   SWELL
                       AIR SEA DIR/SP/G            HT/PER HT/PER
                 (UTC) (F)     (DEG/KT/KT) (MB)    (FT/S) (FT/S)
CHESAPEAKE LIGHT 0100   72      80/ 16/ 18 1017.7
BUOY 44014       0100   77 78   40/ 10/ 12 1016.3    8/10   7/10
DUCK             0100   74 74   50/ 18/ 20 1015.5
2E DUCK          0100                        N/A     6/ 8   2/11
OREGON INLET     0100   73 73   80/  3/  5 1015.8
BUOY 44095       0100      74                N/A     8/ 9   3/11
20E OREGON INLET NOT AVBL
HATTERAS CG      0100   74 74   70/  5/  9 1015.1
DIAMOND BUOY     0100   77      70/ 17/ 21 1013.7    7/10   3/10
CAPE LOOKOUT     0100   71      10/ 10/ 12 1013.4
BEAUFORT LAB     0100   71 75   20/  9/ 14 1013.6
30 SE NEW RIVER  0100   76 83   40/ 21/ 23 1012.6    6/10   3/10
5 SE WRIGHTSVILL 0100   72 80   20/ 21/ 29   N/A
BUOY 41002       NOT AVBL
BUOY 41004       0100   77 82   10/ 21/ 25 1010.9    8/ 7   3/ 8

$$



USA.gov is the U.S. government's official web portal to all federal, state and local government web resources and services.